Location: Spring Creek
(38.2870°N, 100.2160°W)
Time: 03:03:47
(UTC+00:00)

ATLAS 2AS CENTAUR R/B - Pass Details

Date: 08 May 2021
Orbit: 949 x 1263 km, 63.7° (Epoch: 07 May)

Event Time Altitude Azimuth Distance (km) Brightness Sun altitude
Rises 07:35:15 0° 317° (NW) 4,010 6.1 -32.9°
Reaches altitude 10° 07:38:25 10° 307° (NW) 2,994 5.2 -32.7°
Enters shadow 07:41:16 21° 288° (WNW) 2,241 4.3 -32.5°
